Powrót do katalogu

CZ-6A DEB

AktywnySSO
NORAD 56616·DEBRIS·🇨🇳 China

Wystrzelony Nov 11, 2022 z Taiyuan Satellite Launch Center

Loading…

Następne Przeloty (najbliższe 24 godziny)

TLE

ŚwieżeSource: Space-Track

Epoka: Sep 13, 2026, 05:23 UTC

1 56616U 22151AEQ 26256.22443480  .00000170  00000-0  11429-3 0  9991
2 56616  98.8245 258.8126 0033259  55.4884 304.9421 14.12956502174909

Śledź CZ-6A DEB w czasie rzeczywistym z AllMySat

Download on the App Store